GW3733 Weather Reports


time (UTC)temp
F
wind
direction
speed
knots
gust
knots
rain 1hr
in
rain 24hr
in
rain mn
in
humidity
%
barometer
mb
20260509135746 57 347 0.9 1.7 0.00 0.00 0.00 78 1006.9
20260509135244 56 357 0.0 0.0 0.00 0.00 0.00 78 1006.8
20260509134740 56 352 0.0 0.0 0.00 0.00 0.00 79 1006.7
20260509134238 55 352 0.0 0.0 0.00 0.00 0.00 82 1007.0
20260509133735 55 352 0.0 0.0 0.00 0.00 0.00 84 1007.0
20260509133231 55 354 0.0 0.0 0.00 0.00 0.00 82 1006.7
20260509132730 55 354 0.0 0.0 0.00 0.00 0.00 82 1006.7
20260509132228 55 2 0.0 0.0 0.00 0.00 0.00 82 1006.4
20260509131725 54 352 0.0 0.0 0.00 0.00 0.00 84 1006.7
20260509131221 53 352 0.0 0.0 0.00 0.00 0.00 89 1006.7
20260509130717 53 0 0.0 0.0 0.00 0.00 0.00 90 1006.6
20260509130213 53 31 0.9 0.9 0.00 0.00 0.00 87 1006.5
20260509125710 53 349 0.0 0.0 0.00 0.00 0.00 89 1006.3
20260509125207 53 18 0.0 0.0 0.00 0.00 0.00 90 1006.6
20260509124703 53 2 0.0 0.0 0.00 0.00 0.00 89 1006.9
20260509124200 53 4 0.0 0.0 0.00 0.00 0.00 88 1007.0
20260509123659 54 352 0.0 0.0 0.00 0.00 0.00 87 1007.0
20260509123155 53 331 0.9 0.9 0.00 0.00 0.00 87 1007.1
20260509122650 53 8 0.0 0.0 0.00 0.00 0.00 85 1006.8
20260509122142 53 2 0.0 0.0 0.00 0.00 0.00 85 1006.9
20260509121638 53 3 0.0 0.0 0.00 0.00 0.00 86 1006.9
20260509121137 52 2 0.0 0.0 0.00 0.00 0.00 85 1006.9
20260509120634 52 1 0.0 0.0 0.00 0.00 0.00 88 1007.1
20260509120132 52 2 0.0 0.0 0.00 0.00 0.00 88 1007.1
20260509115629 52 4 0.0 0.0 0.00 0.00 0.00 89 1006.9
20260509115127 52 4 0.0 0.0 0.00 0.00 0.00 89 1006.9
20260509114625 51 4 0.0 0.0 0.00 0.00 0.00 89 1006.5
20260509114124 51 4 0.0 0.0 0.00 0.00 0.00 89 1006.9
20260509113621 51 4 0.0 0.0 0.00 0.00 0.00 89 1006.7
20260509113119 51 5 0.0 0.0 0.00 0.00 0.00 88 1006.5
20260509112615 51 4 0.0 0.0 0.00 0.00 0.00 88 1006.7
20260509112112 51 5 0.0 0.0 0.00 0.00 0.00 87 1006.4
20260509111609 51 4 0.0 0.0 0.00 0.00 0.00 88 1006.7
20260509111106 50 5 0.0 0.0 0.00 0.00 0.00 87 1006.8
20260509110603 50 4 0.0 0.0 0.00 0.00 0.00 89 1006.6
20260509110100 50 0 0.0 0.0 0.00 0.00 0.00 88 1006.4
20260509105558 50 4 0.0 0.0 0.00 0.00 0.00 87 1006.5
20260509105055 50 359 0.0 0.0 0.00 0.00 0.00 87 1006.6
20260509104552 50 352 0.0 0.0 0.00 0.00 0.00 89 1006.4
20260509104049 50 344 0.0 0.0 0.00 0.00 0.00 89 1006.5
20260509103547 50 11 0.0 0.0 0.00 0.00 0.00 88 1006.3
20260509103045 50 11 0.0 0.0 0.00 0.00 0.00 88 1006.3
20260509102542 50 11 0.0 0.0 0.00 0.00 0.00 88 1006.3
20260509102039 50 12 0.0 0.0 0.00 0.00 0.00 86 1006.1
20260509101535 50 12 0.0 0.0 0.00 0.00 0.00 86 1006.0
20260509101032 50 13 0.0 0.9 0.00 0.00 0.00 85 1006.0
20260509100529 50 12 0.0 0.0 0.00 0.00 0.00 85 1006.2
20260509100027 50 1 0.0 0.0 0.00 0.00 0.00 85 1006.0
20260509095523 50 1 0.0 0.0 0.00 0.00 0.00 86 1005.9
20260509095021 50 2 0.0 0.0 0.00 0.00 0.00 85 1005.8
20260509094516 50 359 0.0 0.9 0.00 0.00 0.00 90 1005.9
20260509094014 50 0 0.0 0.0 0.00 0.00 0.00 90 1005.8
20260509093512 50 4 0.0 0.0 0.00 0.00 0.00 90 1005.7
20260509093010 50 4 0.0 0.0 0.00 0.00 0.00 91 1005.8
20260509092507 50 3 0.0 0.0 0.00 0.00 0.00 91 1005.6
20260509092006 50 4 0.0 0.0 0.00 0.00 0.00 91 1005.8
20260509091503 50 4 0.0 0.0 0.00 0.00 0.00 91 1006.0
20260509090959 50 4 0.0 0.0 0.00 0.00 0.00 91 1005.8
20260509090456 50 4 0.0 0.0 0.00 0.00 0.00 92 1005.9
20260509085954 50 4 0.0 0.0 0.00 0.00 0.00 92 1005.9
20260509085451 50 4 0.0 0.0 0.00 0.00 0.00 91 1005.9
20260509084947 50 4 0.0 0.0 0.00 0.00 0.00 93 1006.1
20260509084444 50 4 0.0 0.0 0.00 0.00 0.00 92 1005.8
20260509083941 50 4 0.0 0.0 0.00 0.00 0.00 91 1005.7
20260509083439 49 4 0.0 0.0 0.00 0.00 0.00 90 1005.8
20260509082935 49 4 0.0 0.0 0.00 0.00 0.00 92 1006.0
20260509082432 49 4 0.0 0.0 0.00 0.00 0.00 92 1006.0
20260509081929 49 4 0.0 0.0 0.00 0.00 0.00 92 1005.9
20260509081427 49 4 0.0 0.0 0.00 0.00 0.00 92 1006.0
20260509080924 49 4 0.0 0.0 0.00 0.00 0.00 92 1006.1
20260509080422 49 4 0.0 0.0 0.00 0.00 0.00 91 1005.9
20260509075920 49 4 0.0 0.0 0.00 0.00 0.00 91 1006.2
20260509075416 48 4 0.0 0.0 0.00 0.00 0.00 91 1006.0
20260509074914 48 4 0.0 0.0 0.00 0.00 0.00 91 1006.3
20260509074412 48 4 0.0 0.0 0.00 0.00 0.00 91 1006.3
20260509073908 48 4 0.0 0.0 0.00 0.00 0.00 92 1006.2
20260509073404 48 4 0.0 0.0 0.00 0.00 0.00 92 1006.3
20260509072901 48 4 0.0 0.0 0.00 0.00 0.00 92 1006.2
20260509072357 48 4 0.0 0.0 0.00 0.00 0.00 93 1006.2
20260509071854 48 4 0.0 0.0 0.00 0.00 0.00 92 1006.3
20260509071351 47 4 0.0 0.0 0.00 0.00 0.00 92 1006.4
20260509070848 47 4 0.0 0.0 0.00 0.00 0.00 92 1006.5
20260509070345 47 3 0.0 0.0 0.00 0.00 0.00 92 1006.4
20260509065841 47 3 0.0 0.0 0.00 0.00 0.00 93 1006.4
20260509065337 46 3 0.0 0.0 0.00 0.00 0.00 93 1006.5
20260509064833 46 3 0.0 0.0 0.00 0.00 0.00 93 1006.3
20260509064331 46 3 0.0 0.0 0.00 0.00 0.00 93 1006.6
20260509063829 46 3 0.0 0.0 0.00 0.00 0.00 93 1006.5
20260509063324 47 3 0.0 0.0 0.00 0.00 0.00 93 1006.4
20260509062822 46 3 0.0 0.0 0.00 0.00 0.00 93 1006.6
20260509062319 46 3 0.0 0.0 0.00 0.00 0.00 93 1006.5
20260509061816 46 3 0.0 0.0 0.00 0.00 0.00 92 1006.7
20260509061314 46 3 0.0 0.0 0.00 0.00 0.00 92 1006.9
20260509060811 46 3 0.0 0.0 0.00 0.00 0.00 92 1006.8
20260509060308 47 4 0.0 0.0 0.00 0.00 0.00 91 1006.8
20260509055803 47 4 0.0 0.0 0.00 0.00 0.00 91 1006.9
20260509055259 47 4 0.0 0.0 0.00 0.00 0.00 91 1006.9
20260509054756 47 4 0.0 0.0 0.00 0.00 0.00 90 1007.0
20260509054252 48 4 0.0 0.0 0.00 0.00 0.00 90 1007.0
20260509053751 48 4 0.0 0.0 0.00 0.00 0.00 90 1007.0
20260509053248 48 4 0.0 0.0 0.00 0.00 0.00 89 1007.0
20260509052746 48 4 0.0 0.0 0.00 0.00 0.00 88 1007.1
20260509052243 48 2 0.0 0.0 0.00 0.00 0.00 90 1007.1
20260509051741 48 4 0.0 0.0 0.00 0.00 0.00 88 1007.0
20260509051239 48 2 0.0 0.0 0.00 0.00 0.00 89 1007.2
20260509050735 48 3 0.0 0.0 0.00 0.00 0.00 90 1007.1
20260509050231 48 4 0.0 0.0 0.00 0.00 0.00 89 1007.1
20260509045729 48 4 0.0 0.0 0.00 0.00 0.00 89 1007.0
20260509045226 48 359 0.0 0.0 0.00 0.00 0.00 89 1007.0
20260509044723 48 358 0.0 0.0 0.00 0.00 0.00 89 1006.9
20260509044221 48 359 0.0 0.0 0.00 0.00 0.00 90 1006.8
20260509043717 47 359 0.0 0.0 0.00 0.00 0.00 89 1006.8
20260509043213 47 359 0.0 0.0 0.00 0.00 0.00 90 1007.0
20260509042709 47 359 0.0 0.0 0.00 0.00 0.00 90 1007.1
20260509042205 47 359 0.0 0.0 0.00 0.00 0.00 91 1007.0
20260509041702 47 359 0.0 0.0 0.00 0.00 0.00 91 1007.1
20260509041200 47 359 0.0 0.0 0.00 0.00 0.00 90 1007.1
20260509040658 47 359 0.0 0.0 0.00 0.00 0.00 90 1007.2
20260509040154 47 359 0.0 0.0 0.00 0.00 0.00 89 1007.1
20260509035651 48 359 0.0 0.0 0.00 0.00 0.00 90 1007.1
20260509035148 48 359 0.0 0.0 0.00 0.00 0.00 89 1007.0
20260509034645 48 359 0.0 0.0 0.00 0.00 0.00 88 1007.4
20260509034142 48 359 0.0 0.0 0.00 0.00 0.00 86 1007.3
20260509033639 49 356 0.0 0.0 0.00 0.00 0.00 87 1007.1
20260509033136 49 9 0.0 0.0 0.00 0.00 0.00 84 1007.1
20260509032634 50 2 0.0 0.0 0.00 0.00 0.00 84 1007.2
20260509032130 50 3 0.0 0.0 0.00 0.00 0.00 84 1007.3
20260509031628 50 311 0.9 0.9 0.00 0.00 0.00 83 1007.2
20260509031125 51 14 0.0 0.9 0.00 0.00 0.00 84 1007.2
20260509030624 51 347 0.0 0.0 0.00 0.00 0.00 82 1007.2
20260509030121 52 359 0.0 0.0 0.00 0.00 0.00 83 1007.1
20260509025616 52 355 0.0 0.0 0.00 0.00 0.00 81 1007.3
20260509025112 52 12 0.0 0.0 0.00 0.00 0.00 83 1007.2
20260509024608 52 340 0.9 0.9 0.00 0.00 0.00 84 1007.3
20260509024104 52 12 0.0 0.0 0.00 0.00 0.00 83 1007.4
20260509023602 52 12 0.0 0.0 0.00 0.00 0.00 84 1007.5
20260509023059 52 12 0.0 0.0 0.00 0.00 0.00 85 1007.8
20260509022555 52 14 0.0 0.0 0.00 0.00 0.00 84 1007.5
20260509022053 51 4 0.0 0.0 0.00 0.00 0.00 84 1007.9
20260509021550 51 4 0.0 0.0 0.00 0.00 0.00 85 1007.4
20260509021047 51 4 0.0 0.0 0.00 0.00 0.00 84 1007.4
20260509020545 51 4 0.0 0.0 0.00 0.00 0.00 84 1007.4
20260509020041 51 4 0.0 0.0 0.00 0.00 0.00 84 1007.6
20260509015541 51 4 0.0 0.0 0.00 0.00 0.00 84 1007.6
20260509015038 51 2 0.0 0.0 0.00 0.00 0.00 84 1007.5
20260509014534 51 3 0.0 0.0 0.00 0.00 0.00 85 1007.4
20260509014030 51 3 0.0 0.0 0.00 0.00 0.00 82 1007.5
20260509013528 50 3 0.0 0.0 0.00 0.00 0.00 84 1007.2
20260509013023 50 2 0.0 0.0 0.00 0.00 0.00 84 1007.5
20260509012520 50 3 0.0 0.0 0.00 0.00 0.00 85 1007.3
20260509012017 50 3 0.0 0.0 0.00 0.00 0.00 84 1007.2
20260509011515 50 3 0.0 0.0 0.00 0.00 0.00 82 1007.2
20260509011012 51 3 0.0 0.0 0.00 0.00 0.00 81 1007.2
20260509010510 51 4 0.0 0.0 0.00 0.00 0.00 79 1007.3
20260509010006 50 3 0.0 0.0 0.00 0.00 0.00 81 1007.5
20260509005504 50 2 0.0 0.0 0.00 0.00 0.00 82 1007.4
20260509005003 50 2 0.0 0.0 0.00 0.00 0.00 82 1007.1
20260509004500 51 2 0.0 0.0 0.00 0.00 0.00 82 1007.2
20260509003958 51 2 0.0 0.0 0.00 0.00 0.00 80 1007.1
20260509003456 51 2 0.0 0.0 0.00 0.00 0.00 79 1007.1
20260509002953 51 2 0.0 0.0 0.00 0.00 0.00 81 1007.4
20260509002450 52 2 0.0 0.0 0.00 0.00 0.00 81 1007.3
20260509001947 52 2 0.0 0.0 0.00 0.00 0.00 78 1007.2
20260509001443 53 2 0.0 0.0 0.00 0.00 0.00 78 1007.2
20260509000940 54 2 0.0 0.0 0.00 0.00 0.00 76 1007.0
20260509000440 55 5 0.0 0.0 0.00 0.00 0.00 74 1007.1
20260508235934 56 6 0.0 0.0 0.00 0.00 0.00 72 1007.0
20260508235432 56 0 0.0 0.0 0.00 0.00 0.00 70 1006.8
20260508234928 57 352 0.0 0.0 0.00 0.00 0.00 68 1006.8
20260508234426 58 349 0.0 0.0 0.00 0.00 0.00 65 1006.6
20260508233923 59 356 0.0 0.0 0.00 0.00 0.00 65 1006.7
20260508233422 60 5 0.0 0.0 0.00 0.00 0.00 62 1006.8
20260508232919 61 350 0.0 0.0 0.00 0.00 0.00 60 1006.7
20260508232416 62 358 0.0 0.0 0.00 0.00 0.00 54 1006.5
20260508231913 63 354 0.0 0.0 0.00 0.00 0.00 51 1006.5
20260508231410 65 357 0.0 0.0 0.00 0.00 0.00 51 1006.6
20260508230907 66 358 0.0 0.0 0.00 0.00 0.00 47 1006.7
20260508230404 66 358 0.0 0.0 0.00 0.00 0.00 42 1006.6
20260508225901 67 352 0.0 0.0 0.00 0.00 0.00 41 1006.5
20260508225358 67 353 0.0 0.0 0.00 0.00 0.00 41 1006.7
20260508224855 66 317 1.7 1.7 0.00 0.00 0.00 40 1006.4
20260508224353 67 350 0.0 0.9 0.00 0.00 0.00 38 1006.5
20260508223850 67 354 0.0 0.0 0.00 0.00 0.00 38 1006.6
20260508223347 67 2 0.0 0.0 0.00 0.00 0.00 40 1006.6
20260508222844 67 347 0.9 0.9 0.00 0.00 0.00 41 1006.5
20260508222342 68 44 0.9 0.9 0.00 0.00 0.00 38 1006.7
20260508221838 67 350 0.0 0.0 0.00 0.00 0.00 38 1006.8
20260508221334 67 351 0.0 0.0 0.00 0.00 0.00 40 1006.7
20260508220830 67 328 0.9 0.9 0.00 0.00 0.00 39 1006.6
20260508220327 68 0 0.9 0.9 0.00 0.00 0.00 41 1006.9
20260508215823 68 0 0.0 0.0 0.00 0.00 0.00 37 1006.7
20260508215320 67 6 0.0 0.0 0.00 0.00 0.00 38 1006.5
20260508214817 68 347 1.7 1.7 0.00 0.00 0.00 37 1006.6
20260508214314 68 289 2.6 2.6 0.00 0.00 0.00 38 1006.6
20260508213811 67 232 0.0 0.9 0.00 0.00 0.00 35 1006.8
20260508213308 68 292 1.7 1.7 0.00 0.00 0.00 36 1006.7
20260508212804 68 7 1.7 1.7 0.00 0.00 0.00 35 1007.1
20260508212300 68 326 1.7 2.6 0.00 0.00 0.00 39 1006.9
20260508211756 68 331 1.7 1.7 0.00 0.00 0.00 36 1006.7
20260508211252 68 335 1.7 1.7 0.00 0.00 0.00 35 1007.0
20260508210750 66 348 0.0 0.9 0.00 0.00 0.00 39 1007.0
20260508210246 66 324 0.9 0.9 0.00 0.00 0.00 42 1007.0
20260508205743 66 340 3.5 5.2 0.00 0.00 0.00 38 1007.0
20260508205239 67 315 2.6 3.5 0.00 0.00 0.00 37 1007.0
20260508204736 66 304 2.6 2.6 0.00 0.00 0.00 38 1007.1
20260508204233 65 326 1.7 1.7 0.00 0.00 0.00 40 1007.1
20260508203729 66 298 1.7 1.7 0.00 0.00 0.00 38 1007.1
20260508203225 66 37 0.9 0.9 0.00 0.00 0.00 40 1007.1
20260508202716 66 323 0.0 0.9 0.00 0.00 0.00 40 1007.3
20260508202213 66 243 0.9 1.7 0.00 0.00 0.00 38 1007.4
20260508201710 65 255 0.9 1.7 0.00 0.00 0.00 37 1007.4
20260508201207 65 306 1.7 1.7 0.00 0.00 0.00 41 1007.5
20260508200704 65 6 0.9 1.7 0.00 0.00 0.00 39 1007.4
20260508200159 66 284 0.9 1.7 0.00 0.00 0.00 38 1007.5
20260508195656 66 0 0.0 0.9 0.00 0.00 0.00 36 1007.4
20260508195153 66 359 0.0 0.9 0.00 0.00 0.00 37 1007.8
20260508194649 66 274 0.9 1.7 0.00 0.00 0.00 36 1007.6
20260508194146 66 312 3.5 5.2 0.00 0.00 0.00 38 1008.0
20260508193643 66 350 0.0 0.9 0.00 0.00 0.00 38 1007.8
20260508193140 65 357 0.0 0.9 0.00 0.00 0.00 38 1007.8
20260508192636 65 281 0.9 1.7 0.00 0.00 0.00 37 1007.9
20260508192134 65 337 0.9 0.9 0.00 0.00 0.00 38 1007.9
20260508191630 65 348 0.9 1.7 0.00 0.00 0.00 37 1008.1
20260508191127 65 307 1.7 1.7 0.00 0.00 0.00 36 1008.3
20260508190625 66 304 0.0 0.9 0.00 0.00 0.00 38 1008.1
20260508190120 66 326 0.9 0.9 0.00 0.00 0.00 38 1008.2
20260508185617 67 202 2.6 3.5 0.00 0.00 0.00 36 1008.2
20260508185115 66 344 0.9 1.7 0.00 0.00 0.00 36 1008.1
20260508184612 66 339 1.7 1.7 0.00 0.00 0.00 34 1008.4
20260508184109 66 8 2.6 3.5 0.00 0.00 0.00 35 1008.3
20260508183605 66 326 2.6 3.5 0.00 0.00 0.00 35 1008.4
20260508183101 67 317 0.0 0.9 0.00 0.00 0.00 33 1008.4
20260508182558 67 303 3.5 3.5 0.00 0.00 0.00 32 1008.4
20260508182055 66 341 0.9 0.9 0.00 0.00 0.00 33 1008.5
20260508181555 66 15 0.0 0.9 0.00 0.00 0.00 33 1008.6
20260508181053 67 205 3.5 5.2 0.00 0.00 0.00 34 1008.4
20260508180550 68 5 0.9 0.9 0.00 0.00 0.00 40 1008.9
20260508180046 67 280 1.7 2.6 0.00 0.00 0.00 35 1008.6
20260508175543 67 297 2.6 2.6 0.00 0.00 0.00 37 1008.7
20260508175040 67 310 1.7 2.6 0.00 0.00 0.00 35 1008.8
20260508174538 66 353 0.0 0.0 0.00 0.00 0.00 41 1009.0
20260508174034 66 320 2.6 2.6 0.00 0.00 0.00 35 1009.0
20260508173531 65 0 5.2 7.0 0.00 0.00 0.00 34 1008.9
20260508173027 67 335 1.7 2.6 0.00 0.00 0.00 33 1009.2
20260508172524 67 41 0.0 0.9 0.00 0.00 0.00 36 1009.1
20260508172021 65 341 0.0 0.9 0.00 0.00 0.00 39 1009.0
20260508171518 66 209 2.6 3.5 0.00 0.00 0.00 36 1009.2
20260508171014 66 12 1.7 1.7 0.00 0.00 0.00 32 1009.5
20260508170512 65 18 2.6 2.6 0.00 0.00 0.00 37 1009.2
20260508170009 65 319 1.7 2.6 0.00 0.00 0.00 43 1009.3
20260508165506 66 237 2.6 2.6 0.00 0.00 0.00 36 1009.4
20260508165002 66 331 3.5 3.5 0.00 0.00 0.00 34 1009.4
20260508164459 65 287 1.7 1.7 0.00 0.00 0.00 38 1009.5
20260508163956 66 34 2.6 2.6 0.00 0.00 0.00 33 1009.7
20260508163454 64 244 0.9 0.9 0.00 0.00 0.00 36 1009.7
20260508162949 64 36 0.9 1.7 0.00 0.00 0.00 36 1009.7
20260508162447 64 314 3.5 3.5 0.00 0.00 0.00 39 1009.8
20260508161944 64 240 1.7 2.6 0.00 0.00 0.00 37 1010.1
20260508161441 64 331 1.7 2.6 0.00 0.00 0.00 44 1010.0
20260508160938 63 212 0.9 1.7 0.00 0.00 0.00 39 1009.9
20260508160437 63 340 1.7 1.7 0.00 0.00 0.00 41 1010.0
20260508155932 62 351 3.5 3.5 0.00 0.00 0.00 40 1010.0
20260508155430 63 314 3.5 3.5 0.00 0.00 0.00 39 1010.0
20260508154926 61 337 0.9 0.9 0.00 0.00 0.00 45 1010.1
20260508154424 62 340 0.9 0.9 0.00 0.00 0.00 39 1010.1
20260508153921 62 0 0.9 0.9 0.00 0.00 0.00 42 1010.1
20260508153418 60 227 0.9 1.7 0.00 0.00 0.00 43 1010.3
20260508152914 60 334 1.7 2.6 0.00 0.00 0.00 42 1010.3
20260508152411 60 200 1.7 1.7 0.00 0.00 0.00 43 1010.3
20260508151907 62 7 3.5 3.5 0.00 0.00 0.00 42 1010.4
20260508151404 64 275 1.7 2.6 0.00 0.00 0.00 39 1010.4
20260508150900 63 22 1.7 1.7 0.00 0.00 0.00 42 1010.1
20260508150357 62 314 0.9 1.7 0.00 0.00 0.00 41 1010.2
20260508145853 63 340 3.5 5.2 0.00 0.00 0.00 39 1010.4
20260508145349 62 313 0.9 1.7 0.00 0.00 0.00 44 1010.5
20260508144846 63 286 3.5 3.5 0.00 0.00 0.00 39 1010.5
20260508144344 62 3 0.9 0.9 0.00 0.00 0.00 41 1010.6
20260508143841 62 307 1.7 1.7 0.00 0.00 0.00 43 1010.4
20260508143338 62 314 2.6 3.5 0.00 0.00 0.00 38 1010.6
20260508142835 61 302 2.6 3.5 0.00 0.00 0.00 42 1010.5
20260508142332 61 266 1.7 1.7 0.00 0.00 0.00 42 1010.5
20260508141828 61 337 0.9 1.7 0.00 0.00 0.00 41 1010.8
20260508141325 61 41 1.7 1.7 0.00 0.00 0.00 45 1010.6
20260508140823 61 351 0.9 1.7 0.00 0.00 0.00 40 1010.6
20260508140320 60 85 1.7 2.6 0.00 0.00 0.00 40 1010.6
20260508135815 60 69 0.0 0.9 0.00 0.00 0.00 39 1010.6